[[{"header":{"parameterUnit":"m.s-1","parameterCategory":1,"la1":30.2991,"la2":30.254,"lo1":-89.0895,"lo2":-89.0444,"dy":0.0017,"dx":0.0017,"nx":28,"ny":28,"refTime":"2025-04-19T21:00:00:Z","depth":0,"parameterNumber":2,"parameterNumberName":"U-component_of_WINDS"},"data":[0,0,0,0,0,0,0,0,0,0,0,0,0,0,0,0,0,0,0,0,0,0,0,0,0,0,0,0,0,0,0,0,0,0,0,0,0,0,0,0,0,0,0,0,0,0,0,0,0,0,0,0,0,0,0,0,0,0,-4.8104,-4.8105,0,-4.8204,-4.8206,-4.8207,-4.8216,-4.8215,-4.8214,-4.8213,-4.8314,-4.8318,-4.8322,0,0,0,0,0,0,0,0,0,0,0,0,0,-4.792,-4.7923,-4.8104,-4.8105,-4.8106,-4.8204,-4.8206,-4.8207,-4.8216,-4.8215,-4.8214,-4.8213,-4.8313,-4.8318,-4.8322,0,0,0,0,0,0,0,0,0,0,0,0,0,-4.8008,-4.7924,-4.8103,-4.8123,-4.8126,-4.8204,-4.8206,-4.8207,-4.8217,-4.8215,-4.8214,-4.8212,-4.8312,-4.8317,-4.8323,-4.8388,0,0,-4.8339,-4.8342,0,0,0,0,0,0,0,0,-4.8003,-4.8015,-4.8119,-4.8122,-4.8125,-4.8196,-4.8178,-4.8268,-4.8217,-4.8182,-4.8213,-4.8211,-4.8276,-4.8285,-4.8307,-4.8393,-4.8397,-4.834,-4.8343,-4.8346,-4.8347,0,0,0,0,0,0,0,-4.7997,-4.801,-4.8143,-4.812,-4.8124,-4.8127,-4.8137,-4.8195,-4.8237,-4.8185,-4.8186,-4.8198,-4.8278,-4.8302,-4.8309,-4.8399,-4.834,-4.8345,-4.8348,-4.835,-4.8545,-4.8547,0,0,0,0,0,0,-4.7987,-4.8005,-4.814,-4.8147,-4.8059,-4.8131,-4.8143,-4.8175,-4.8236,-4.8244,-4.8199,-4.8198,-4.8293,-4.8303,-4.8313,-4.8394,-4.8346,-4.8351,-4.8354,-4.8543,-4.8545,-4.8547,0,0,0,0,0,0,-4.7983,-4.7999,-4.8136,-4.8076,-4.8094,-4.8136,-4.8171,-4.8178,-4.8201,-4.8247,-4.8254,-4.8216,-4.8292,-4.8305,-4.837,-4.8397,-4.8353,-4.8358,-4.8541,-4.8544,-4.8546,-4.8555,0,0,0,0,0,0,-4.7978,-4.7998,-4.8023,-4.8077,-4.8097,-4.8191,-4.8173,-4.8181,-4.8211,-4.8211,-4.8264,-4.8272,-4.8292,-4.8361,-4.8375,-4.8404,-4.8363,-4.8538,-4.8542,-4.8545,-4.8553,-4.8558,-4.8563,0,0,0,0,0,-4.7971,-4.802,-4.8024,-4.804,-4.8129,-4.8193,-4.8204,-4.8227,-4.8213,-4.8239,-4.8269,-4.827,-4.8393,-4.8368,-4.8384,-4.8414,-4.8537,-4.8541,-4.8545,-4.855,-4.8557,-4.8562,0,0,0,0,0,0,-4.7967,-4.8028,-4.8032,-4.81,-4.8142,-4.8194,-4.8227,-4.8233,-4.8278,-4.8275,-4.8301,-4.8314,-4.8377,-4.8403,-4.8374,-4.8482,-4.8463,-4.8471,-4.8462,-4.8469,-4.8474,-4.8465,-4.8367,0,0,0,0,0,-4.7974,-4.8021,-4.8072,-4.8127,-4.8148,-4.8184,-4.8212,-4.8227,-4.827,-4.8287,-4.8321,-4.8363,-4.8411,-4.8442,-4.8488,-4.8558,-4.8569,-4.8587,-4.8592,-4.8596,-4.8601,-4.864,-4.8648,-4.8561,-4.8561,-4.8561,0,0,-4.7989,-4.8028,-4.8056,-4.8127,-4.8161,-4.8208,-4.8198,-4.8249,-4.8284,-4.8294,-4.8357,-4.8384,-4.8433,-4.85,-4.8532,-4.8523,-4.8628,-4.8601,-4.8604,-4.8607,-4.8645,-4.8653,-4.8661,-4.8564,-4.8563,-4.8563,0,0,-4.804,-4.8075,-4.8125,-4.8159,-4.8211,-4.8235,-4.8247,-4.83,-4.8319,-4.8383,-4.8392,-4.8435,-4.8517,-4.8551,-4.8579,-4.8647,-4.865,-4.8662,-4.8687,-4.8725,-4.8731,-4.8738,-4.8761,-4.8769,-4.8668,-4.8668,-4.8668,0,-4.8051,-4.8124,-4.815,-4.8201,-4.8232,-4.8245,-4.8296,-4.8328,-4.8392,-4.8413,-4.8404,-4.8509,-4.8542,-4.8618,-4.8635,-4.8658,-4.8672,-4.8654,-4.8729,-4.8735,-4.8741,-4.8763,-4.8772,-4.8669,-4.8669,-4.8669,-4.8669,0,-4.8135,-4.8186,-4.822,-4.8282,-4.8318,-4.8368,-4.8402,-4.8435,-4.8448,-4.8473,-4.8539,-4.858,-4.8636,-4.8656,-4.8668,-4.8734,-4.8727,-4.8723,-4.8705,-4.875,-4.8771,-4.878,-4.867,-4.867,-4.867,-4.8669,0,0,-4.8183,-4.8261,-4.8273,-4.8302,-4.8361,-4.84,-4.8453,-4.8508,-4.8536,-4.8581,-4.8624,-4.8695,-4.8693,-4.8725,-4.8741,-4.8775,-4.8825,-4.8767,-4.8768,-4.8775,-4.89,-4.8901,-4.8911,-4.8829,-4.8831,-4.8833,-4.8896,0,-4.8239,-4.8332,-4.8358,-4.8436,-4.8483,-4.8498,-4.8544,-4.8585,-4.8612,-4.8655,-4.8685,-4.8734,-4.8727,-4.8747,-4.8781,-4.8812,-4.885,-4.8808,-4.8869,-4.8871,-4.8854,-4.8922,-4.8923,-4.898,-4.8904,-4.8906,-4.8907,0,-4.8316,-4.8363,-4.8446,-4.8501,-4.8522,-4.8562,-4.8616,-4.8658,-4.8706,-4.8723,-4.876,-4.8775,-4.883,-4.8811,-4.8888,-4.8858,-4.8886,-4.8905,-4.8908,-4.8912,-4.889,-4.8926,-4.8999,-4.9007,-4.8921,-4.892,-4.8919,0,-4.8341,-4.8425,-4.8486,-4.8511,-4.8576,-4.8604,-4.8633,-4.868,-4.8712,-4.876,-4.8781,-4.8834,-4.8863,-4.8904,-4.8932,-4.8916,-4.9006,-4.899,-4.9021,-4.902,-4.9037,-4.9035,-4.9113,-4.9058,-4.9058,-4.9058,-4.9058,0,-4.8399,-4.8449,-4.8498,-4.8535,-4.8592,-4.8623,-4.8678,-4.8708,-4.875,-4.8793,-4.881,-4.8851,-4.8887,-4.8932,-4.8956,-4.9015,-4.9029,-4.9043,-4.9048,-4.904,-4.9038,-4.9056,-4.9052,-4.906,-4.906,-4.9059,-4.9059,0,-4.8435,-4.847,-4.8537,-4.8595,-4.8611,-4.865,-4.8699,-4.8736,-4.8764,-4.8819,-4.8834,-4.8878,-4.8932,-4.8966,-4.9035,-4.9051,-4.9116,-4.9121,-4.9099,-4.9101,-4.913,-4.9126,-4.922,-4.9234,-4.9172,-4.9173,-4.9173,0,-4.8469,-4.8508,-4.857,-4.8601,-4.863,-4.8679,-4.8713,-4.8745,-4.878,-4.8839,-4.8869,-4.8925,-4.8971,-4.9058,-4.9095,-4.9149,-4.9154,-4.9183,-4.9161,-4.9153,-4.9152,-4.9149,-4.9152,-4.9186,-4.9186,-4.9187,-4.9187,0,-4.8525,-4.8541,-4.8589,-4.8643,-4.8683,-4.8727,-4.8771,-4.8796,-4.8836,-4.8874,-4.893,-4.8966,-4.9038,-4.9093,-4.915,-4.918,-4.919,-4.9194,-4.9204,-4.9195,-4.918,-4.9187,-4.9107,-4.9191,-4.9191,-4.919,-4.919,-4.919,-4.856,-4.8595,-4.8645,-4.8698,-4.8735,-4.8777,-4.8814,-4.8848,-4.8896,-4.8957,-4.8974,-4.9033,-4.9082,-4.916,-4.9192,-4.9238,-4.9234,-4.9248,-4.9252,-4.9254,-4.9254,-4.9175,-4.9249,-4.9249,-4.9249,-4.9249,-4.9249,0,-4.8616,-4.8649,-4.8698,-4.876,-4.8802,-4.881,-4.886,-4.8894,-4.8946,-4.8991,-4.9037,-4.9102,-4.9157,-4.9201,-4.9257,-4.9286,-4.9292,-4.9299,-4.9296,-4.9303,-4.9255,-4.924,-4.9293,-4.9293,-4.9293,-4.9293,-4.9293,-4.9293,-4.865,-4.871,-4.8732,-4.8812,-4.8845,-4.8904,-4.8931,-4.897,-4.9006,-4.9079,-4.9124,-4.9153,-4.9198,-4.9258,-4.9308,-4.932,-4.9339,-4.9345,-4.9357,-4.9311,-4.9306,-4.9301,-4.9287,-4.9349,-4.9349,-4.9401,-4.9401,-4.9401]},{"header":{"parameterUnit":"m.s-1","parameterCategory":1,"la1":30.2991,"la2":30.254,"lo1":-89.0895,"lo2":-89.0444,"dy":0.0017,"dx":0.0017,"nx":28,"ny":28,"refTime":"2025-04-19T21:00:00:Z","depth":0,"parameterNumber":3,"parameterNumberName":"V-component_of_WINDS"},"data":[0,0,0,0,0,0,0,0,0,0,0,0,0,0,0,0,0,0,0,0,0,0,0,0,0,0,0,0,0,0,0,0,0,0,0,0,0,0,0,0,0,0,0,0,0,0,0,0,0,0,0,0,0,0,0,0,0,0,4.4576,4.4576,0,4.4602,4.4602,4.4603,4.4647,4.4648,4.4648,4.4649,4.4675,4.4675,4.4675,0,0,0,0,0,0,0,0,0,0,0,0,0,4.4564,4.4564,4.4576,4.4576,4.4576,4.4602,4.4602,4.4603,4.4647,4.4648,4.4649,4.465,4.4675,4.4675,4.4675,0,0,0,0,0,0,0,0,0,0,0,0,0,4.4578,4.4564,4.4576,4.4601,4.4604,4.4602,4.4602,4.4603,4.4646,4.4648,4.4649,4.465,4.4675,4.4675,4.4675,4.465,0,0,4.4675,4.4675,0,0,0,0,0,0,0,0,4.4577,4.4578,4.4597,4.46,4.4602,4.4622,4.4608,4.4618,4.4646,4.463,4.4649,4.4651,4.4657,4.4658,4.466,4.4651,4.4652,4.4675,4.4675,4.4675,4.4675,0,0,0,0,0,0,0,4.4576,4.4577,4.4586,4.4597,4.4601,4.4612,4.4615,4.461,4.4636,4.4632,4.4635,4.4638,4.4658,4.466,4.4661,4.4652,4.4675,4.4675,4.4674,4.4674,4.4626,4.4625,0,0,0,0,0,0,4.4571,4.4576,4.4585,4.4587,4.4592,4.4611,4.4615,4.4615,4.4636,4.4641,4.4636,4.464,4.466,4.4661,4.4662,4.4636,4.4675,4.4674,4.4674,4.4627,4.4626,4.4624,0,0,0,0,0,0,4.4571,4.4571,4.4584,4.4582,4.4585,4.461,4.461,4.4615,4.4617,4.464,4.4645,4.4634,4.4661,4.4662,4.4653,4.4637,4.4674,4.4674,4.4629,4.4627,4.4625,4.4581,0,0,0,0,0,0,4.457,4.4571,4.4561,4.4582,4.4585,4.4574,4.4609,4.4614,4.4617,4.4621,4.4639,4.4643,4.4662,4.4653,4.4653,4.4638,4.4674,4.463,4.4628,4.4626,4.4584,4.4578,4.4573,0,0,0,0,0,4.457,4.4547,4.4561,4.4561,4.4573,4.4573,4.4575,4.4598,4.4615,4.4606,4.4621,4.4642,4.4639,4.4652,4.4652,4.4636,4.4631,4.4629,4.4626,4.4587,4.4579,4.4573,0,0,0,0,0,0,4.4523,4.455,4.4565,4.4549,4.4559,4.4581,4.457,4.4589,4.4593,4.4597,4.4625,4.4628,4.4616,4.4625,4.4639,4.4614,4.4639,4.4636,4.4609,4.4602,4.4596,4.4595,4.4674,0,0,0,0,0,4.4511,4.4509,4.4533,4.4516,4.452,4.4544,4.4545,4.4562,4.4573,4.4577,4.4591,4.4601,4.4602,4.4602,4.4605,4.4586,4.4591,4.4575,4.457,4.4565,4.4563,4.4555,4.4549,4.4615,4.4615,4.4616,0,0,4.4486,4.4501,4.4498,4.4507,4.4517,4.4514,4.4547,4.4542,4.4541,4.4576,4.4569,4.458,4.4592,4.4579,4.4573,4.4586,4.4546,4.4562,4.4558,4.4558,4.4552,4.4546,4.454,4.4614,4.4614,4.4614,0,0,4.444,4.445,4.4439,4.4448,4.4462,4.4478,4.4475,4.4495,4.4504,4.4497,4.4524,4.4523,4.4524,4.4532,4.4537,4.4496,4.4516,4.4496,4.4467,4.4459,4.4454,4.445,4.4437,4.4431,4.4493,4.4493,4.4493,0,4.4407,4.4405,4.443,4.4425,4.4429,4.4461,4.445,4.4457,4.4471,4.4474,4.4488,4.4492,4.4502,4.4492,4.4482,4.4484,4.4483,4.4494,4.4453,4.4449,4.4445,4.4433,4.4428,4.4491,4.4491,4.4491,4.4491,0,4.4365,4.4363,4.4351,4.4365,4.4368,4.436,4.4384,4.4384,4.4401,4.4416,4.441,4.4424,4.4431,4.4429,4.4445,4.4422,4.443,4.4448,4.4473,4.4436,4.4425,4.442,4.4487,4.4488,4.4489,4.4489,0,0,4.429,4.4319,4.4314,4.4322,4.4341,4.434,4.4334,4.4341,4.4341,4.435,4.4346,4.4347,4.4365,4.437,4.4387,4.4381,4.435,4.44,4.4401,4.4391,4.4327,4.4314,4.4308,4.4363,4.4362,4.4361,4.4326,0,4.4248,4.424,4.4263,4.4248,4.4248,4.4279,4.4274,4.4285,4.4299,4.4301,4.4317,4.4318,4.434,4.4344,4.4338,4.4354,4.4337,4.4357,4.4361,4.436,4.4358,4.4302,4.4288,4.4255,4.4322,4.4321,4.4321,0,4.4199,4.4207,4.4192,4.4214,4.4215,4.4209,4.4219,4.422,4.4234,4.4245,4.4251,4.4272,4.4268,4.4292,4.4288,4.4301,4.4304,4.4312,4.4311,4.4313,4.4339,4.4304,4.4244,4.424,4.4314,4.4315,4.4315,0,4.4148,4.4154,4.4147,4.4153,4.4177,4.4173,4.4183,4.4198,4.4202,4.421,4.4213,4.422,4.4225,4.423,4.4253,4.4268,4.4247,4.4271,4.4256,4.4256,4.4251,4.4251,4.4192,4.4251,4.4251,4.4251,4.4251,0,4.41,4.409,4.4125,4.4121,4.4112,4.4139,4.4129,4.4142,4.4155,4.4155,4.4181,4.418,4.421,4.4212,4.4229,4.4224,4.4226,4.4235,4.424,4.4233,4.4232,4.4236,4.424,4.4249,4.425,4.425,4.425,0,4.4041,4.4064,4.4059,4.4083,4.4089,4.4081,4.4102,4.4099,4.4116,4.4115,4.4116,4.4141,4.4146,4.4169,4.4178,4.419,4.4179,4.4188,4.4175,4.4178,4.4162,4.4164,4.4105,4.4099,4.416,4.4159,4.4158,0,4.401,4.4004,4.4028,4.403,4.4039,4.4041,4.4045,4.4072,4.4075,4.4092,4.4087,4.4094,4.4101,4.4106,4.4126,4.4134,4.4144,4.4123,4.4145,4.4139,4.4146,4.4146,4.4147,4.4118,4.4117,4.4116,4.4116,0,4.3953,4.3965,4.397,4.398,4.3984,4.3993,4.4003,4.4003,4.4033,4.4035,4.4041,4.4046,4.4056,4.4063,4.4074,4.4085,4.4106,4.4109,4.4106,4.41,4.4093,4.4098,4.4163,4.411,4.4111,4.4111,4.4111,4.4112,4.3908,4.3905,4.3922,4.3927,4.3938,4.3947,4.3947,4.3964,4.3969,4.398,4.3995,4.3998,4.4014,4.4032,4.4041,4.4044,4.4056,4.4051,4.4051,4.4049,4.4047,4.4091,4.4046,4.4047,4.4047,4.4047,4.4047,0,4.3854,4.3866,4.3871,4.3886,4.389,4.391,4.3922,4.3925,4.3928,4.3941,4.3948,4.3955,4.3962,4.3982,4.3991,4.399,4.4,4.3992,4.3993,4.3996,4.4035,4.4037,4.3984,4.3984,4.3984,4.3984,4.3984,4.3984,4.3826,4.3822,4.3836,4.3838,4.3851,4.3856,4.3861,4.3871,4.3882,4.3888,4.3894,4.3908,4.3924,4.3935,4.3943,4.3949,4.3952,4.3941,4.395,4.3986,4.3993,4.3998,4.4001,4.3941,4.3941,4.3911,4.391,4.391]}]]